TimeEDT,TemperatureF,Dew PointF,Humidity,Sea Level PressureIn,VisibilityMPH,Wind Direction,Wind SpeedMPH,Gust SpeedMPH,PrecipitationIn,Events,Conditions,WindDirDegrees,DateUTC
12:15 AM,68.0,66.2,94,29.96,10.0,SSE,3.5,-,N/A,,Overcast,150,2013-09-25 04:15:00
12:35 AM,66.2,66.2,100,29.95,10.0,South,8.1,-,N/A,,Drizzle,190,2013-09-25 04:35:00
12:55 AM,64.4,64.4,100,29.96,5.0,SW,8.1,-,0.02,Rain,Heavy Rain,220,2013-09-25 04:55:00
1:15 AM,64.4,64.4,100,29.95,7.0,South,6.9,-,N/A,,Light Drizzle,190,2013-09-25 05:15:00
1:35 AM,64.4,64.4,100,29.95,7.0,South,5.8,-,0.01,,Light Drizzle,180,2013-09-25 05:35:00
1:55 AM,64.4,64.4,100,29.95,7.0,South,6.9,-,0.01,,Overcast,170,2013-09-25 05:55:00
2:15 AM,62.6,62.6,100,29.96,4.0,SSE,4.6,-,0.01,,Heavy Drizzle,150,2013-09-25 06:15:00
2:35 AM,62.6,62.6,100,29.95,3.0,SE,3.5,-,0.02,,Drizzle,130,2013-09-25 06:35:00
2:55 AM,62.6,62.6,100,29.94,7.0,Calm,Calm,-,0.02,,Overcast,0,2013-09-25 06:55:00
3:35 AM,64.4,64.4,100,29.93,10.0,NE,5.8,-,N/A,,Overcast,50,2013-09-25 07:35:00
3:55 AM,62.6,62.6,100,29.92,7.0,ENE,5.8,-,N/A,Rain,Heavy Rain,60,2013-09-25 07:55:00
4:15 AM,62.6,62.6,100,29.91,5.0,ENE,5.8,-,0.01,,Drizzle,60,2013-09-25 08:15:00
4:35 AM,64.4,64.4,100,29.91,10.0,NNE,3.5,-,0.01,,Overcast,30,2013-09-25 08:35:00
4:55 AM,64.4,64.4,100,29.91,10.0,ENE,3.5,-,0.01,,Overcast,70,2013-09-25 08:55:00
5:35 AM,64.4,64.4,100,29.91,7.0,East,5.8,-,N/A,,Drizzle,80,2013-09-25 09:35:00
5:55 AM,64.4,64.4,100,29.92,5.0,East,5.8,-,N/A,,Light Drizzle,100,2013-09-25 09:55:00
6:15 AM,64.4,64.4,100,29.92,4.0,ESE,5.8,-,N/A,,Light Drizzle,110,2013-09-25 10:15:00
6:35 AM,62.6,62.6,100,29.91,3.0,ESE,5.8,-,0.02,,Drizzle,110,2013-09-25 10:35:00
6:47 AM,64.4,64.4,100,29.91,4.0,ESE,9.2,-,N/A,,Drizzle,120,2013-09-25 10:47:00
7:47 AM,62.6,62.6,100,29.92,3.0,ESE,6.9,-,N/A,Rain,Rain,110,2013-09-25 11:47:00
8:47 AM,62.6,62.6,100,29.94,2.0,North,3.5,-,N/A,Rain,Heavy Rain,350,2013-09-25 12:47:00
9:47 AM,62.6,62.6,100,29.95,2.0,Calm,Calm,-,N/A,Rain,Rain,0,2013-09-25 13:47:00
10:47 AM,64.4,64.4,100,29.95,7.0,East,4.6,-,N/A,,Mostly Cloudy,80,2013-09-25 14:47:00
11:47 AM,64.4,64.4,100,29.95,10.0,ESE,6.9,-,N/A,,Mostly Cloudy,110,2013-09-25 15:47:00
12:47 PM,66.2,64.4,94,29.94,10.0,ESE,6.9,-,N/A,,Mostly Cloudy,110,2013-09-25 16:47:00
1:47 PM,68.0,62.6,83,29.92,10.0,East,5.8,-,N/A,,Mostly Cloudy,100,2013-09-25 17:47:00
2:47 PM,68.0,62.6,83,29.91,10.0,ESE,5.8,-,N/A,,Mostly Cloudy,110,2013-09-25 18:47:00
3:47 PM,64.4,64.4,100,29.90,2.0,SE,3.5,-,N/A,Rain,Rain,140,2013-09-25 19:47:00
4:47 PM,64.4,64.4,100,29.90,3.0,East,6.9,-,N/A,Rain,Rain,100,2013-09-25 20:47:00
5:47 PM,64.4,64.4,100,29.89,7.0,East,9.2,-,N/A,,Overcast,90,2013-09-25 21:47:00
6:47 PM,64.4,64.4,100,29.91,7.0,East,5.8,-,N/A,,Overcast,80,2013-09-25 22:47:00
7:47 PM,64.4,64.4,100,29.91,7.0,East,6.9,-,N/A,,Overcast,80,2013-09-25 23:47:00
8:47 PM,64.4,64.4,100,29.92,10.0,NE,5.8,-,N/A,,Overcast,50,2013-09-26 00:47:00
9:15 PM,62.6,62.6,100,29.93,10.0,Calm,Calm,-,N/A,,Overcast,0,2013-09-26 01:15:00
9:35 PM,62.6,62.6,100,29.93,10.0,Calm,Calm,-,N/A,,Overcast,0,2013-09-26 01:35:00
9:55 PM,62.6,62.6,100,29.93,10.0,Calm,Calm,-,N/A,,Overcast,0,2013-09-26 01:55:00
10:15 PM,62.6,62.6,100,29.93,7.0,Calm,Calm,-,N/A,,Overcast,0,2013-09-26 02:15:00
10:35 PM,62.6,62.6,100,29.93,7.0,East,3.5,-,N/A,,Overcast,80,2013-09-26 02:35:00
10:55 PM,62.6,62.6,100,29.93,7.0,SE,3.5,-,N/A,,Overcast,130,2013-09-26 02:55:00
11:15 PM,62.6,62.6,100,29.93,7.0,East,3.5,-,N/A,,Overcast,100,2013-09-26 03:15:00
11:35 PM,62.6,62.6,100,29.93,7.0,East,3.5,-,N/A,,Overcast,80,2013-09-26 03:35:00
11:55 PM,62.6,62.6,100,29.93,7.0,NNE,3.5,-,N/A,,Overcast,20,2013-09-26 03:55:00